Regional Weather Roundup
Issued by NWS Bismarck, ND

Home | Current Version | Previous Version | Text Only | Print | Product List | Glossary On
Versions: 1 2 3 4 5 6 7 8 9 10 11 12 13 14 15 16 17 18 19 20 21 22 23 24 25 26 27 28 29 30 31 32 33 34 35 36 37 38 39 40 41 42 43 44 45 46 47 48 49 50
262
ASUS43 KBIS 270310
RWRBIS

NWR BROADCAST TEXT
NATIONAL WEATHER SERVICE BISMARCK ND
1000 PM CDT WED APR 26 2017

NOTE: "FAIR" INDICATES FEW OR NO CLOUDS BELOW 12,000 FEET WITH NO
SIGNIFICANT WEATHER AND/OR OBSTRUCTIONS TO VISIBILITY.


CITY           SKY/WX    TMP DP  RH WIND       PRES   REMARKS
WILLISTON      FAIR      41  20  43 E9        29.78R
MINOT          FAIR      37  27  67 NE10      29.78R
MINOT AFB      FAIR      37  26  65 NE9       29.78R
BISMARCK       CLOUDY    38  30  73 E10       29.78R
DICKINSON      FAIR      33  20  58 NE6       29.72R
GARRISON         N/A     34  27  75 E7        29.77R
HETTINGER ARPT FAIR      32  24  72 NE7       29.73R
JAMESTOWN      CLOUDY    30  26  85 NE13      29.76R WCI  20
HAZEN          FAIR      36  27  69 E7        29.79R
LINTON           N/A     34  30  86 NE12G18   29.78R
MANDAN         CLOUDY    37  28  70 NE15      29.77R
STANLEY        FAIR      36  27  69 NE9       29.80R
TIOGA          FAIR      30  21  69 E8        29.79S
WATFORD CITY   FAIR      36  21  55 E6        29.76S
$$

CITY           SKY/WX    TMP DP  RH WIND       PRES   REMARKS
GRAND FORKS    LGT SNOW  32  30  92 N13       29.78S FOG
GRAND FORKS AF LGT SNOW  30  29  97 N15       29.79S FOG     WCI  19
DEVILS LAKE    CLOUDY    34  27  75 E7        29.79S
FARGO          LGT SNOW  29  28  96 N17       29.74R VSB 1   WCI  17
CAVALIER       CLOUDY    36  23  60 NE8       29.81R
GRAFTON        CLOUDY    30  30 100 NE14      29.82R FOG     WCI  20
GWINNER        CLOUDY    28  27  93 MISG      29.73F
LANGDON        CLOUDY    36  25  64 NE10      29.79S
ROLLA          FAIR      32  21  64 NE16      29.81S
$$

CITY           SKY/WX    TMP DP  RH WIND       PRES   REMARKS
ABERDEEN       CLOUDY    29  23  78 N16       29.75S WCI  17
MOBRIDGE       FAIR      31  23  72 NE8       29.72R
BUFFALO          N/A     42  26  53 E3        29.65R
RAPID CITY     FAIR      32  27  81 W6        29.73S
GLASGOW        FAIR      43  25  49 SE10      29.70S
SIDNEY         FAIR      41  20  43 E7        29.75R
WOLF POINT     FAIR      44  25  47 E10       29.73R
GLENDIVE       FAIR      40  28  62 E6        29.73R
MILES CITY     FAIR      43  31  62 E6        29.69S
BAKER          FAIR      35  27  72 S3        29.72R
$$

CITY           SKY/WX    TMP DP  RH WIND       PRES   REMARKS
BILLINGS       LGT RAIN  45  38  76 NW10      29.63R
GREAT FALLS    MOCLDY    42  38  85 W5        29.61R
REGINA         PTCLDY    39  18  41 E14       29.80S
ESTEVAN        PTCLDY    36  25  64 E9        29.80R
$$





USA.gov is the U.S. government's official web portal to all federal, state and local government web resources and services.